www.pogodaiklimat.ru

Погода и климат >> Архив погоды >> Индия >> Чхаттисгарх >> Райпур


ПОГОДА в Райпуре

  • Прогноз погоды в Райпуре
  • Монитор погоды в Райпуре

АРХИВ ПОГОДЫ в Райпуре

Время (UTC), дата Ветер
(напр.,м/с)
 
Видим.   Явления Облачность Т
(С)
Тd
(С)
f
(%)
Тe
(С)
Тes
(С)
Комфортность P
(гПа)
Po
(гПа)
Тmin
(С)
Tmax
(С)
R
(мм)
R24
(мм)
S
(см)
18 9.06 Ю 1 4000 м ясно +33.2 +22.1 52 +42 +42 опасность
перегрева
997.8 965.2
21 9.06 Ю 1 4000 м ясно +32.0 +20.6 51 +39 +39 очень
душно
997.5 964.8
00 10.06 штиль 0 4000 м ясно +30.2 +23.2 66 +40 +40 очень
душно
998.5 965.5
03 10.06 ЮЗ 2 4000 м ясно +35.4 +20.6 42 +42 +52 опасность
перегрева
998.7 966.3 +29.8
06 10.06 З 2 4000 м ясно +40.8 +19.4 29 +45 +67 опасность
перегрева
997.3 965.5
09 10.06 ЮЗ 1 4000 м 4/4 750 м
[Sc]
+44.8 +16.0 19 +46 +57 опасность
перегрева
994.5 963.2
12 10.06 ЮЗ 1 4000 м 8/6 750 м
[Sc]
+44.0 +18.3 23 +47 +48 опасность
перегрева
993.2 961.8 +45.2
15 10.06 Ю 3 4000 м 5/3 750 м
[Sc Ac trans]
+39.6 +17.7 28 +43 +43 опасность
перегрева
995.4 963.5
18 10.06 ЮЗ 2 4000 м 1/0
[Ac trans]
+36.2 +19.4 37 +41 +41 опасность
перегрева
997.2 964.9
21 10.06 З 4 4000 м ясно +35.4 +19.8 40 +41 +41 опасность
перегрева
996.5 964.1
00 11.06 З 3 4000 м 5/0
[Ac trans]
+34.4 +19.3 41 +40 +40 очень
душно
997.9 965.4
03 11.06 З 3 4000 м 5/0
[Ac trans]
+35.4 +19.5 39 +41 +46 опасность
перегрева
999.8 967.3 +33.6
06 11.06 СЗ 4 4000 м 3/0
[Ci fib]
+39.0 +18.5 30 +43 +56 опасность
перегрева
998.4 966.4
09 11.06 З 2 4000 м 3/0
[Ci sp]
+43.2 +17.5 23 +46 +60 опасность
перегрева
994.8 963.3
12 11.06 З 3 4000 м 4/3 750 м
[Sc Ci sp]
+43.0 +18.1 24 +46 +47 опасность
перегрева
993.7 962.2 +44.3
15 11.06 ЮЗ 2 4000 м 5/4 750 м
[Sc Ci fib]
+38.6 +21.1 36 +45 +45 опасность
перегрева
996.2 964.2
18 11.06 З 1 4000 м 5/4 750 м
[Sc Ci fib]
+36.6 +22.1 43 +45 +45 опасность
перегрева
998.2 965.9
21 11.06 Ю 1 4000 м 6/5 750 м
[Sc Ci fib]
+35.4 +22.7 48 +45 +45 опасность
перегрева
997.2 964.8
00 12.06 Ю 1 4000 м 4/3 750 м
[Sc Ci fib]
+34.4 +20.4 44 +41 +41 опасность
перегрева
997.6 965.1
03 12.06 З 3 4000 м ясно +37.0 +19.7 37 +43 +50 опасность
перегрева
999.6 967.3 +33.9
06 12.06 З 3 4000 м ясно +40.6 +19.6 30 +45 +63 опасность
перегрева
998.6 966.7
09 12.06 Ю 1 4000 м 3/3 750 м
[Sc Ac trans]
+44.0 +19.2 24 +48 +60 опасность
перегрева
995.6 964.1
12 12.06 ЮЗ 3 4000 м 3/3 900 м
[Cu hum]
+42.8 +18.2 24 +46 +47 опасность
перегрева
994.5 963.0 +44.2
15 12.06 ЮЗ 2 4000 м ясно +38.8 +18.2 30 +42 +42 опасность
перегрева
996.6 964.6
18 12.06 ЮЗ 1 4000 м 3/0
[Ci fib]
+36.4 +19.6 37 +41 +41 опасность
перегрева
998.5 966.2
21 12.06 З 1 4000 м ясно +34.4 +20.0 43 +40 +40 очень
душно
998.0 965.5
00 13.06 З 2 4000 м 5/3 750 м
[Sc Ci fib]
+34.6 +20.3 43 +41 +41 опасность
перегрева
999.7 967.2
03 13.06 З 2 4000 м 5/0
[Ac trans Ci fib]
+35.4 +20.6 42 +42 +50 опасность
перегрева
1001.5 969.0 +33.4
06 13.06 З 3 4000 м 5/0
[Ci fib]
+38.6 +19.9 34 +44 +60 опасность
перегрева
1000.2 968.1
09 13.06 СЗ 3 4000 м 5/5 750 м
[Cu Sc]
+40.8 +20.2 31 +46 +53 опасность
перегрева
997.3 965.5
12 13.06 СЗ 1 4000 м 5/4 750 м
[Cu Sc Ci fib]
+41.0 +19.3 29 +46 +47 опасность
перегрева
995.8 964.0 +41.8
15 13.06 СЗ 3 4000 м 5/3 900 м
[Cu med, cong Ci fib]
+35.0 +22.9 50 +45 +45 опасность
перегрева
1000.0 967.5
18 13.06 СЗ 1 4000 м 5/3 900 м
[Cu med, cong Ci fib]
+33.0 +21.9 52 +41 +41 опасность
перегрева
1000.6 967.9
21 13.06 штиль 0 4000 м 5/3 900 м
[Cu med, cong Ci fib]
+32.4 +21.5 53 +41 +41 опасность
перегрева
1000.6 967.8
00 14.06 штиль 0 4000 м 5/0
[Ac lent Ci fib]
+31.4 +21.3 55 +39 +39 очень
душно
1000.1 967.2
03 14.06 З 2 4000 м 3/0
[Ci fib]
+35.0 +21.9 47 +44 +52 опасность
перегрева
1000.4 967.9 +30.6
06 14.06 З 4 4000 м 3/1 900 м
[Cu hum Ci fib]
+39.4 +20.2 33 +45 +57 опасность
перегрева
999.2 967.2
09 14.06 СЗ 2 4000 м 4/4 900 м
[Cu hum]
+41.8 +19.3 28 +46 +56 опасность
перегрева
996.4 964.7
12 14.06 З 3 4000 м 4/4 900 м
[Cu hum]
+42.0 +18.7 26 +46 +47 опасность
перегрева
995.0 963.4 +42.8
15 14.06 З 2 4000 м слаб. дождь 8/6 600 м
[Cb cap Ac trans]
+36.0 +22.7 46 +45 +45 опасность
перегрева
998.7 966.3 0.0
18 14.06 В 1 4000 м гроза, ливневой дождь 9/8 600 м
[Cb cap Ac trans]
+27.6 +25.6 89 +41 +41 опасность
перегрева
1001.8 968.4 11
21 14.06 В 2 4000 м слаб. ливневой дождь, в посл. час гроза 9/8 600 м
[Sc Ac trans]
+26.2 +25.9 98 +39 +39 очень
душно
1002.9 969.4 27
00 15.06 штиль 0 4000 м {гроза, дождь} 8/3 600 м
[Sc Ac trans Ci sp]
+28.0 +25.7 87 +41 +41 опасность
перегрева
1000.3 967.0 30
03 15.06 штиль 0 4000 м 8/3 750 м
[Sc Ac trans]
+30.6 +26.1 77 +46 +51 опасность
перегрева
1000.8 967.8 +25.4 30
06 15.06 З 3 4000 м 4/0
[Ac trans Ci fib]
+37.8 +22.9 43 +47 +62 опасность
перегрева
999.5 967.3
09 15.06 З 3 4000 м 6/4 750 м
[Cu Sc Ac trans]
+40.8 +21.8 34 +48 +54 опасность
перегрева
996.9 965.1
12 15.06 СЗ 3 4000 м гроза без осадков 8/5 210 м
[Cb calv Ac trans]
+35.0 +23.2 51 +46 +46 опасность
перегрева
996.4 964.0 +41.5
15 15.06 СЗ 4 4000 м гроза, ливневой дождь 8/5 600 м
[Cb calv Ac trans]
+30.8 +22.9 63 +41 +41 опасность
перегрева
1001.1 968.1 0.0
18 15.06 штиль 0 4000 м 5/5 750 м
[Sc]
+29.6 +24.5 74 +42 +42 опасность
перегрева
1001.7 968.6 0.0
21 15.06 штиль 0 4000 м 5/5 750 м
[Sc]
+29.0 +23.2 71 +39 +39 очень
душно
1001.8 968.6 0.0
00 16.06 штиль 0 4000 м 5/5 750 м
[Sc diur, vesp]
+28.6 +23.4 73 +39 +39 очень
душно
1003.8 970.5 0.0
03 16.06 З 1 4000 м 5/0 600 м
[Ac trans Ci fib]
+32.4 +23.8 61 +44 +52 опасность
перегрева
1002.0 969.2 +28.2 0.0
06 16.06 С 3 4000 м 6/0
[Ac trans Ci fib]
+35.8 +24.8 53 +49 +60 опасность
перегрева
1001.0 968.5
09 16.06 З 2 4000 м 6/4 750 м
[Sc Ac trans]
+39.4 +23.5 40 +49 +56 опасность
перегрева
998.0 966.0
12 16.06 СЗ 3 4000 м {гроза, дождь} 8/1 750 м
[Cb calv Ac trans Ci fib]
+36.6 +25.8 54 +52 +52 опасность
перегрева
997.4 965.1 +40.0 0.0
15 16.06 ЮЗ 1 4000 м в посл. час дождь 6/4 750 м
[Sc Ac trans Ci fib]
+29.4 +24.5 75 +42 +42 опасность
перегрева
1001.5 968.3 0.0

 

Местоположение метеостанции Райпур (Чхаттисгарх, Индия): широта 21.23 долгота 81.65 высота над уровнем моря 298 м.

В архиве по умолчанию представлена погода в Райпуре за последнюю неделю. Архивные данные за месяц целиком и за предыдущие месяцы, начиная с января 2011 года, Вы можете получить, выбрав интересующий диапазон дат из раскрывающегося списка и нажав кнопку "Ввод!".


*Определитесь, кто Вы:
робот инопланетянин человек

Внимание! Время в таблицах - всемирное. Для получения местного времени необходимо прибавить поправку, которая равна 5.5 ч.

Смотрите также архив погоды в соседних городах и на ближайших метеорологических станциях:

Погода в Дурге (Чхаттисгарх, Индия) (39 км)
Погода в Раджнандгаоне (Чхаттисгарх, Индия) (66 км)
Погода в Биласпуре (Чхаттисгарх, Индия) (111 км)
Погода в Райпур аэропорту (Чхаттисгарх, Индия) (111 км)
Погода в Малейнджкханде (Мадхья-Прадеш, Индия) (130 км)
Погода в Гондии (Махараштра, Индия) (153 км)
Погода в Пендра-роуде (Чхаттисгарх, Индия) (173 км)
Погода в Брамапури (Махараштра, Индия) (200 км)
Погода в Мандле (Мадхья-Прадеш, Индия) (200 км)
Погода в Титилагаре (Орисса, Индия) (200 км)

Пояснения к столбцам:

Ветер - указаны скорость ветра в м/с - средняя за 10 мин, порывы в срок и между сроками (в фигурных скобках) и направление, откуда дует ветер: С - северный, СВ - северо-восточный, В - восточный, ЮВ - юго-восточный, Ю - южный, ЮЗ - юго-западный, З - западный, СЗ - северо-западный.
Видимость - горизонтальная дальность видимости в метрах или километрах. При видимости от 1 до 10 км при отсутствии осадков обычно наблюдается дымка, при ухудшении видимости до 1 км и менее - туман. В сухую погоду видимость может ухудшаться дымом, пылью или мглою.
Явления - указаны атмосферные явления, наблюдавшиеся в срок или в последний час перед сроком; фигурными скобками обозначены явления, наблюдавшиеся между сроками (за 1-3 часа до срока); квадратными скобками обозначены град или гололедные отложения с указанием их диаметра в мм.
Облачность - указаны через наклонную черту общая и нижняя облачность в баллах и высота нижней границы облаков в метрах; квадратными скобками обозначены формы облаков: Ci - перистые, Cs - перисто-слоистые, Cc - перисто-кучевые, Ac - высококучевые, As - высокослоистые, Sc - слоисто-кучевые, Ns - слоисто-дождевые, Cu - кучевые, Cb - кучево-дождевые. Подробнее классификацию облаков см. в Атласе облаков (PDF).
T - Температура воздуха - температура, измеренная на высоте 2 м над землей.
Td - Температура точки росы - температура, при понижении до которой содержащийся в воздухе водяной пар достигнет насыщения.
f - Относительная влажность воздуха - влажноcть воздуха, измеренная на высоте 2 м над землей.
Te - Эффективная температура - температура, которую ощущает одетый по сезону человек в тени. Характеристика душности погоды. При расчете учитывается влияние влажности воздуха и скорости ветра на теплоощущения человека.
Tes - Эффективная температура на солнце - температура, которую ощущает человек, с поправкой на солнечный нагрев. Характеристика знойности погоды. Зависит от высоты солнца над горизонтом, облачности и скорости ветра. Ночью, в пасмурную погоду, а также при ветре 12 м/с и более поправка равна нулю.
P - Атмосферное давление - приведенное к уровню моря атмосферное давление.
Po - Атмосферное давление - измеренное на уровне метеостанции атмосферное давление.
Tmin - Минимальная температура - минимум температуры воздуха на высоте 2 м над землей.
Tmax - Максимальная температура - максимум температуры воздуха на высоте 2 м над землей.
R - Количество осадков - Количество выпавших осадков за период времени, мм. При наведении курсора мыши на число - период времени, за который выпало указанное количество осадков.
R24 - Количество осадков - Количество выпавших осадков за 24 часа, мм.
S - Снежный покров - Высота снежного покрова, см. При наведении курсора мыши на число - состояние снежного покрова и степень покрытия местности в баллах.